15min,AgWx,beryljct,423,21JUN2021:00:00:00,70.9,12.86,67.5,73.6,74.3,78.8,71.0,22,30,16,0.804,32.6,38.9,27.1,2.938,2.6,231,37,5.4,0.00014,0.00028,70.5,71.1,10,0,0,.,8.85,0.00,0.00
15min,AgWx,beryljct,423,21JUN2021:00:15:00,70.2,12.86,69.9,68.0,67.9,72.9,65.3,32,45,27,0.703,36.8,44.0,32.2,2.214,3.2,257,17,4.9,0.00018,0.00032,70.4,71.0,10,0,0,.,8.85,0.00,0.00
15min,AgWx,beryljct,423,21JUN2021:00:30:00,69.2,12.85,69.1,70.6,68.3,70.9,65.7,30,41,19,0.672,35.3,42.0,26.9,0,1.3,264,28,3.5,-0.00015,-0.00018,70.1,71.0,10,0,0,.,8.85,0.00,0.00
15min,AgWx,beryljct,423,21JUN2021:00:45:00,68.4,12.84,62.8,62.5,68.2,72.4,62.5,31,50,18,0.945,35.4,44.8,25.8,3.42,1.0,74,26,3.5,-0.00025,-0.00034,69.8,70.9,10,0,0,.,8.85,0.00,0.00
15min,AgWx,beryljct,423,21JUN2021:01:00:00,67.2,12.84,68.3,68.6,64.9,68.6,61.7,37,52,24,0.579,37.7,43.9,30.2,3.836,2.6,161,39,4.2,0.00006,0.00014,69.6,70.8,10,0,0,.,8.86,0.00,0.00
15min,AgWx,beryljct,423,21JUN2021:01:15:00,66.3,12.83,59.4,59.5,63.9,68.6,59.5,38,49,24,0.827,37.0,41.7,30.8,3.924,3.7,200,30,5.7,0.00021,0.00034,69.4,70.8,10,0,0,.,8.86,0.00,0.00
15min,AgWx,beryljct,423,21JUN2021:01:30:00,64.9,12.81,67.3,64.0,61.6,66.7,57.7,43,60,24,0.602,38.3,43.7,28.5,2.324,2.4,200,44,6.1,0.00001,0.00006,69.1,70.7,10,0,0,.,8.86,0.00,0.00
15min,AgWx,beryljct,423,21JUN2021:01:45:00,64.0,12.81,66.8,65.2,61.8,65.3,57.9,36,52,24,0.595,34.4,40.9,27.7,3.464,3.4,86,98,5.2,0.00016,0.00028,68.8,70.6,10,0,0,.,8.86,0.00,0.00
15min,AgWx,beryljct,423,21JUN2021:02:00:00,63.6,12.8,58.3,59.2,62.5,66.4,59.2,33,39,24,0.651,32.8,35.7,28.2,0.307,2.6,4.8,20,6.9,0.00007,0.00015,68.4,70.5,10,0,0,.,8.86,0.00,0.00
15min,AgWx,beryljct,423,21JUN2021:02:15:00,62.7,12.79,66.3,63.3,59.8,63.3,57.3,35,45,25,0.505,31.6,36.8,27.3,2.302,2.3,267,77,4.2,0.00001,0.00007,68.4,70.4,10,0,0,.,8.86,0.00,0.00
15min,AgWx,beryljct,423,21JUN2021:02:30:00,62.8,12.79,68.4,62.0,64.4,69.0,60.0,29,45,21,0.562,31.0,39.6,26.2,3.201,2.7,283,11,4.8,0.00010,0.00020,68.2,70.3,10,0,0,.,8.86,0.00,0.00
15min,AgWx,beryljct,423,21JUN2021:02:45:00,62.6,12.77,61.7,59.7,62.4,66.3,59.2,35,47,23,0.769,33.9,39.7,27.1,0.263,2.2,274,37,4.1,0.00000,0.00006,68.0,70.2,11,0,0,.,8.86,0.00,0.00
15min,AgWx,beryljct,423,21JUN2021:03:00:00,62.0,12.76,65.1,65.9,62.9,67.2,59.7,34,45,23,0.606,33.7,38.4,28.0,0,1.2,317,60,3.9,-0.00017,-0.00022,67.7,70.1,11,0,0,.,8.86,0.00,0.00
15min,AgWx,beryljct,423,21JUN2021:03:15:00,61.9,12.77,62.4,63.0,65.7,67.3,63.0,29,36,24,0.702,32.6,35.5,29.5,0,0.5,30,23,2.4,-0.00034,-0.00050,67.5,70.1,10,0,0,.,8.86,0.00,0.00
15min,AgWx,beryljct,423,21JUN2021:03:30:00,61.4,12.76,57.6,59.2,59.4,63.0,57.2,44,50,36,0.728,37.2,41.0,32.7,0.614,2.8,183,25,4.8,0.00004,0.00010,67.3,69.9,10,0,0,.,8.86,0.00,0.00
15min,AgWx,beryljct,423,21JUN2021:03:45:00,60.5,12.76,55.7,56.1,58.9,61.0,56.1,43,55,33,0.814,36.4,40.3,31.7,2.565,1.3,316,51,3.2,-0.00016,-0.00020,67.0,69.9,10,0,0,.,8.86,0.00,0.00
15min,AgWx,beryljct,423,21JUN2021:04:00:00,59.7,12.75,57.5,56.5,58.8,63.1,55.6,41,55,28,0.853,34.4,41.3,28.3,2.061,2.7,291,17,4.3,0.00005,0.00011,66.8,69.8,10,0,0,.,8.86,0.00,0.00
15min,AgWx,beryljct,423,21JUN2021:04:15:00,59.1,12.75,56.3,55.7,57.2,58.4,55.7,52,60,48,0.887,39.9,42.0,38.6,3.113,1.3,246,15,3.3,-0.00017,-0.00022,65.8,69.7,10,0,0,.,8.86,0.00,0.00
15min,AgWx,beryljct,423,21JUN2021:04:30:00,58.6,12.74,56.1,58.2,59.4,63.0,55.7,44,58,33,0.744,37.5,41.3,33.0,2.126,2.6,201,0.9,3.5,0.00041,0.00071,66.2,69.6,10,0,0,.,8.86,0.00,0.00
15min,AgWx,beryljct,423,21JUN2021:04:45:00,58.1,12.73,57.6,57.1,56.3,58.2,55.3,38,58,32,0.506,30.5,41.4,26.7,4.45,4.2,319,28,5.5,0.00066,0.00116,66.1,69.4,10,0,0,.,8.86,0.00,0.00
15min,AgWx,beryljct,423,21JUN2021:05:00:00,57.8,12.73,56.3,57.8,58.0,58.8,56.4,31,37,30,0.498,27.8,30.8,27.0,2.302,3.7,311,7.9,5.2,0.00068,0.00118,65.9,69.3,10,0,0,.,8.86,0.00,0.00
15min,AgWx,beryljct,423,21JUN2021:05:15:00,57.4,12.74,56.4,57.0,56.6,57.8,55.8,36,38,31,0.576,29.7,31.5,27.1,1.184,1.6,302,3.4,3.2,0.00031,0.00054,65.2,69.2,10,3,0,.,8.86,0.00,0.00
15min,AgWx,beryljct,423,21JUN2021:05:30:00,56.9,12.74,54.4,54.7,56.0,57.3,54.7,46,59,33,0.729,34.9,41.1,28.5,3.88,1.5,253,54,5.0,0.00031,0.00048,65.3,69.1,10,14,0,.,8.86,0.00,0.00
15min,AgWx,beryljct,423,21JUN2021:05:45:00,56.8,12.76,52.1,51.6,52.5,54.9,51.6,58,63,45,0.770,38.1,39.7,34.2,3.157,1.5,166,3.4,3.7,0.00042,0.00057,65.0,69.0,10,42,0,.,8.86,0.00,0.00
15min,AgWx,beryljct,423,21JUN2021:06:00:00,56.6,12.78,53.4,53.1,52.7,53.5,51.6,57,64,47,0.874,37.8,41.1,33.8,0.943,2.0,184,20,3.3,0.00062,0.00082,64.8,68.9,10,75,0,.,8.86,0.00,0.00
15min,AgWx,beryljct,423,21JUN2021:06:15:00,57.1,12.76,59.6,57.9,54.6,57.9,53.1,57,64,35,0.580,39.3,41.7,30.7,2.938,2.0,199,11,3.1,0.00079,0.00100,65.0,68.8,10,113,0,.,8.86,0.00,0.00
15min,AgWx,beryljct,423,21JUN2021:06:30:00,58.8,12.78,60.3,60.8,59.6,61.6,58.1,49,62,30,1.079,39.7,46.6,28.7,0,1.9,213,5.9,3.6,0.00109,0.00136,64.1,68.6,10,155,0,.,8.86,0.00,0.00
15min,AgWx,beryljct,423,21JUN2021:06:45:00,61.2,12.79,60.0,60.5,61.5,62.4,60.5,56,69,46,1.234,45.6,50.8,41.0,3.113,1.7,56,43,3.8,0.00130,0.00153,64.1,68.5,10,200,0,.,8.85,0.00,0.00
15min,AgWx,beryljct,423,21JUN2021:07:00:00,63.6,12.8,62.2,62.2,61.4,62.3,60.2,64,70,60,1.196,49.2,50.5,47.3,0.986,0.7,103,2.4,3.1,0.00146,0.00161,64.5,68.4,10,245,0,.,8.86,0.00,0.00
15min,AgWx,beryljct,423,21JUN2021:07:15:00,66.0,12.83,63.7,63.8,62.8,63.8,61.9,60,67,53,1.111,48.8,51.1,46.1,1.578,1.3,150,9.5,2.9,0.00181,0.00203,64.3,68.3,10,293,0,.,8.85,0.00,0.00
15min,AgWx,beryljct,423,21JUN2021:07:30:00,68.4,12.85,65.9,65.9,65.0,66.0,63.7,50,57,41,1.165,46.1,49.5,40.9,1.556,1.7,148,4.3,2.6,0.00222,0.00255,64.1,68.2,10,343,0,.,8.85,0.00,0.00
15min,AgWx,beryljct,423,21JUN2021:07:45:00,70.8,12.91,67.2,67.3,66.8,67.3,66.0,48,55,36,1.225,46.6,50.1,39.6,0,0.2,139,0.0,1.6,0.00243,0.00263,64.0,68.1,11,394,0,.,8.85,0.00,0.00
15min,AgWx,beryljct,423,21JUN2021:08:00:00,73.4,13.01,72.2,72.0,70.1,72.6,67.3,43,55,29,1.132,46.1,52.2,38.2,0.351,0.1,97,10,0.7,0.00280,0.00299,63.6,68.0,10,442,0,.,8.85,0.00,0.00
15min,AgWx,beryljct,423,21JUN2021:08:15:00,76.3,13.2,74.7,75.8,73.3,75.8,72.0,37,49,22,0.805,45.1,52.3,33.8,0,0.4,82,0.0,1.5,0.00324,0.00352,63.7,67.8,10,490,0,.,8.85,0.00,0.00
15min,AgWx,beryljct,423,21JUN2021:08:30:00,79.4,13.34,76.0,76.8,76.1,76.8,75.3,31,43,23,0.934,43.4,51.5,35.6,0.482,0.3,82,0.0,1.2,0.00352,0.00380,63.9,67.7,10,525,0,.,8.84,0.00,0.00
15min,AgWx,beryljct,423,21JUN2021:08:45:00,82.2,13.59,79.3,77.7,76.9,77.7,76.2,32,41,24,1.031,44.4,51.9,37.5,0,0.5,80,2.4,1.7,0.00400,0.00435,64.1,67.6,10,585,0,.,8.83,0.00,0.00
15min,AgWx,beryljct,423,21JUN2021:09:00:00,84.1,13.9,76.4,77.2,77.2,78.0,76.8,37,44,28,1.196,48.8,54.0,41.4,3.332,2.2,88,16,4.4,0.00456,0.00518,64.1,67.5,10,631,0,.,8.83,0.00,0.00
15min,AgWx,beryljct,423,21JUN2021:09:15:00,85.0,13.86,78.3,78.6,78.0,78.9,76.9,32,43,25,1.424,46.0,54.1,39.4,1.71,3.1,74,12,5.0,0.00502,0.00585,64.3,67.4,10,675,0,.,8.82,0.00,0.00
15min,AgWx,beryljct,423,21JUN2021:09:30:00,85.9,13.89,78.9,79.1,79.2,80.2,78.6,33,45,22,1.022,47.0,55.8,37.1,6.16,3.4,63,18,7.7,0.00539,0.00628,64.5,67.3,10,717,0,.,8.82,0.00,0.00
15min,AgWx,beryljct,423,21JUN2021:09:45:00,86.4,13.91,80.0,79.7,79.4,79.7,78.9,34,43,24,1.065,48.4,55.0,39.8,5.459,4.5,68,13,7.7,0.00579,0.00686,64.6,67.2,10,756,0,.,8.82,0.00,0.00
15min,AgWx,beryljct,423,21JUN2021:10:00:00,87.0,13.87,80.8,82.5,81.0,83.5,79.8,29,42,18,1.107,45.1,55.9,35.3,2.258,3.0,103,37,6.8,0.00601,0.00694,64.8,67.2,10,799,0,.,8.82,0.00,0.00
15min,AgWx,beryljct,423,21JUN2021:10:15:00,88.5,13.79,82.3,82.3,82.0,82.7,81.5,31,43,20,0.812,47.7,57.4,37.2,1.491,1.6,122,19,3.7,0.00594,0.00662,65.2,67.1,10,808,0,.,8.82,0.00,0.00
15min,AgWx,beryljct,423,21JUN2021:10:30:00,90.0,13.76,82.8,83.4,83.3,85.0,82.3,25,37,18,0.803,43.1,53.5,36.4,1.578,1.0,71,13,2.5,0.00598,0.00657,65.5,67.1,10,821,0,.,8.82,0.00,0.00
15min,AgWx,beryljct,423,21JUN2021:10:45:00,91.0,13.79,82.8,83.3,83.2,84.0,82.6,28,39,16,1.222,46.3,55.7,32.8,3.025,2.6,66,12,3.9,0.00641,0.00730,65.3,67.0,10,847,0,.,8.81,0.00,0.00
15min,AgWx,beryljct,423,21JUN2021:11:00:00,91.5,13.8,84.7,84.9,84.8,86.5,83.2,22,36,16,0.812,41.6,53.6,33.8,2.192,2.7,42,36,7.0,0.00657,0.00754,66.0,67.0,10,854,0,.,8.82,0.00,0.00
15min,AgWx,beryljct,423,21JUN2021:11:15:00,92.3,13.41,84.7,85.6,85.4,86.1,84.4,25,35,18,1.235,45.0,54.1,37.3,0,2.0,34,12,4.3,0.00648,0.00729,66.3,67.0,10,852,0,.,8.81,0.00,0.00
15min,AgWx,beryljct,423,21JUN2021:11:30:00,92.6,13.33,82.9,83.6,84.7,86.8,83.3,27,40,17,0.867,46.9,58.1,36.6,9.58,7.0,154,20,15.3,0.00738,0.00904,66.7,67.0,10,890,0,.,8.82,0.00,0.00
15min,AgWx,beryljct,423,21JUN2021:11:45:00,91.3,13.39,85.7,86.9,85.7,87.1,83.4,20,27,17,0.801,40.2,45.5,36.5,6.927,11.8,174,16,16.2,0.00841,0.01102,67.2,67.0,10,921,0,.,8.82,0.00,0.00
15min,AgWx,beryljct,423,21JUN2021:12:00:00,90.9,13.32,86.0,85.4,86.5,88.1,85.2,22,26,17,0.809,42.7,47.5,37.9,13.83,9.6,177,17,16.6,0.00837,0.01064,67.9,67.0,10,960,0,.,8.82,0.00,0.00
15min,AgWx,beryljct,423,21JUN2021:12:15:00,90.8,13.31,87.0,85.7,86.1,87.2,85.3,22,36,16,1.174,42.2,55.2,35.7,11.55,9.1,162,23,15.7,0.00830,0.01048,68.3,67.1,10,966,0,.,8.82,0.00,0.00
15min,AgWx,beryljct,423,21JUN2021:12:30:00,90.9,13.3,89.4,87.3,86.4,87.9,85.3,21,27,16,0.794,42.4,47.5,36.0,13.35,9.9,164,19,16.3,0.00849,0.01080,69.1,67.1,10,977,0,.,8.82,0.00,0.00
15min,AgWx,beryljct,423,21JUN2021:12:45:00,91.5,13.39,89.0,88.1,88.6,89.6,87.6,18,22,14,0.991,39.1,44.3,33.1,5.042,9.7,187,14,15.7,0.00872,0.01118,69.6,67.2,10,977,0,.,8.82,0.00,0.00
15min,AgWx,beryljct,423,21JUN2021:13:00:00,92.2,13.32,88.1,88.3,88.2,89.3,87.5,19,26,14,0.901,41.2,48.5,33.5,8.77,9.6,185,21,18.9,0.00868,0.01106,70.1,67.2,10,988,0,.,8.82,0.00,0.00
15min,AgWx,beryljct,423,21JUN2021:13:15:00,92.3,13.33,89.6,87.9,87.6,89.1,86.4,19,24,15,0.806,40.4,45.9,35.4,15.81,10.9,164,18,18.8,0.00880,0.01136,70.7,67.4,10,987,0,.,8.82,0.00,0.00
15min,AgWx,beryljct,423,21JUN2021:13:30:00,92.3,13.34,87.8,89.0,87.9,89.9,86.0,21,32,14,1.008,42.9,52.9,33.6,13.46,7.1,175,35,14.8,0.00820,0.01010,71.2,67.4,10,979,0,.,8.82,0.00,0.00
15min,AgWx,beryljct,423,21JUN2021:13:45:00,92.6,13.35,91.9,90.4,88.9,90.4,87.3,19,25,14,0.736,41.0,47.8,34.6,4.626,8.4,180,18,17.7,0.00842,0.01062,71.7,67.6,10,966,0,.,8.82,0.00,0.00
15min,AgWx,beryljct,423,21JUN2021:14:00:00,92.8,13.33,86.5,87.1,88.8,90.4,87.0,19,25,12,0.879,40.7,49.0,31.3,8.97,9.8,172,17,15.2,0.00855,0.01096,72.8,67.7,10,957,0,.,8.82,0.00,0.00
15min,AgWx,beryljct,423,21JUN2021:14:15:00,92.5,13.25,88.3,87.3,88.3,89.8,86.3,17,27,13,0.811,38.1,48.8,31.8,11.05,11.6,170,19,17.3,0.00866,0.01141,73.4,67.8,10,935,0,.,8.82,0.00,0.00
15min,AgWx,beryljct,423,21JUN2021:14:30:00,92.6,13.25,90.4,89.9,89.1,90.0,87.2,17,23,12,0.817,38.1,46.7,30.1,9.62,8.7,182,23,17.8,0.00814,0.01040,74.0,68.0,10,916,0,.,8.82,0.00,0.00
15min,AgWx,beryljct,423,21JUN2021:14:45:00,92.7,13.25,88.3,89.4,88.6,89.9,87.2,15,20,11,0.683,35.4,42.7,28.4,8.62,11.8,184,23,20.1,0.00846,0.01129,74.5,68.2,10,890,0,.,8.82,0.00,0.00
15min,AgWx,beryljct,423,21JUN2021:15:00:00,93.0,13.25,89.2,89.8,89.2,90.0,88.6,14,18,11,0.626,33.8,40.4,28.4,15.3,11.8,184,20,23.9,0.00838,0.01123,75.0,68.4,10,870,0,.,8.82,0.00,0.00
15min,AgWx,beryljct,423,21JUN2021:15:15:00,93.1,13.25,88.7,89.9,89.4,90.0,88.8,12,15,9.6,0.527,30.2,35.3,24.6,16.7,14.0,192,13,21.1,0.00864,0.01193,75.5,68.5,10,844,0,.,8.83,0.00,0.00
15min,AgWx,beryljct,423,21JUN2021:15:30:00,93.3,13.27,89.9,88.6,89.0,89.9,87.2,13,17,9.6,0.532,31.2,39.3,24.8,13.31,12.5,182,17,18.9,0.00802,0.01101,75.9,68.7,10,794,0,.,8.82,0.00,0.00
15min,AgWx,beryljct,423,21JUN2021:15:45:00,93.4,13.26,87.3,88.5,89.2,90.2,88.5,12,15,9.4,0.553,28.9,35.5,24.4,12.93,13.1,179,14,19.1,0.00781,0.01092,76.3,68.9,10,742,0,.,8.82,0.00,0.00
15min,AgWx,beryljct,423,21JUN2021:16:00:00,93.4,13.3,90.0,88.6,88.7,89.9,87.1,13,18,9.6,0.467,30.5,38.4,24.6,6.226,10.3,184,18,16.2,0.00708,0.00966,76.7,69.1,10,721,0,.,8.82,0.00,0.00
15min,AgWx,beryljct,423,21JUN2021:16:15:00,93.3,13.26,89.1,87.7,88.6,89.8,87.1,13,18,8.9,0.657,30.6,38.5,22.7,4.998,10.6,194,19,17.0,0.00687,0.00946,76.9,69.3,10,685,0,.,8.82,0.00,0.00
15min,AgWx,beryljct,423,21JUN2021:16:30:00,92.9,13.26,85.5,86.3,87.7,88.5,86.3,14,18,8.3,0.695,32.2,39.4,20.5,10.37,9.7,224,13,16.7,0.00624,0.00859,77.2,69.5,10,631,0,.,8.82,0.00,0.00
15min,AgWx,beryljct,423,21JUN2021:16:45:00,92.0,13.29,86.2,86.7,86.5,87.0,85.8,14,18,11,0.619,32.1,37.4,25.6,9.62,12.0,227,11,19.2,0.00639,0.00909,76.9,69.8,10,601,0,.,8.82,0.00,0.00
15min,AgWx,beryljct,423,21JUN2021:17:00:00,91.4,13.29,86.3,85.9,86.7,87.6,85.9,15,21,11,0.690,34.1,41.4,26.6,8.24,8.9,218,14,15.8,0.00548,0.00761,77.1,69.9,10,554,0,.,8.82,0.00,0.00
15min,AgWx,beryljct,423,21JUN2021:17:15:00,91.1,13.3,87.4,87.2,86.6,87.7,85.5,14,21,11,0.538,32.0,40.6,26.3,11.51,10.1,210,18,14.1,0.00534,0.00767,77.3,70.1,10,500,0,.,8.82,0.00,0.00
15min,AgWx,beryljct,423,21JUN2021:17:30:00,90.7,13.29,87.0,86.2,86.7,87.7,85.3,13,18,11,0.530,30.6,36.7,25.7,16.62,10.2,204,13,16.6,0.00504,0.00738,77.0,70.3,10,452,0,.,8.83,0.00,0.00
15min,AgWx,beryljct,423,21JUN2021:17:45:00,90.0,13.27,84.1,84.7,85.4,86.5,84.0,14,18,11,0.557,30.3,36.0,26.1,9.97,10.4,216,12,14.9,0.00473,0.00708,77.0,70.5,10,406,0,.,8.82,0.00,0.00
15min,AgWx,beryljct,423,21JUN2021:18:00:00,89.3,13.15,84.1,84.8,85.2,86.5,84.3,13,16,9.3,0.532,29.1,33.4,21.5,9.36,10.0,207,16,13.6,0.00428,0.00653,76.5,70.7,10,354,0,.,8.83,0.00,0.00
15min,AgWx,beryljct,423,21JUN2021:18:15:00,88.6,13.09,86.1,84.9,84.3,85.1,83.2,13,16,11,0.444,27.5,31.7,24.0,13.81,10.8,223,11,15.0,0.00408,0.00642,76.6,70.8,10,305,0,.,8.83,0.00,0.00
15min,AgWx,beryljct,423,21JUN2021:18:30:00,87.7,13.05,83.4,83.9,84.0,85.2,83.1,13,17,10,0.523,28.3,33.7,23.1,8.75,9.2,213,7.9,14.8,0.00340,0.00544,76.9,71.0,10,257,0,.,8.83,0.00,0.00
15min,AgWx,beryljct,423,21JUN2021:18:45:00,87.0,13.05,82.9,83.1,83.7,84.8,82.7,12,15,9.8,0.470,25.9,30.3,21.7,9.8,10.0,208,10,16.3,0.00323,0.00540,77.1,71.2,10,207,0,.,8.83,0.00,0.00
15min,AgWx,beryljct,423,21JUN2021:19:00:00,86.0,13.01,81.2,82.1,82.6,83.5,82.0,12,13,11,0.457,24.5,27.2,21.7,8.55,9.6,219,9.3,13.4,0.00279,0.00486,75.4,71.3,10,159,0,.,8.83,0.00,0.00
15min,AgWx,beryljct,423,21JUN2021:19:15:00,84.8,13.02,80.2,80.5,81.2,82.0,79.5,12,15,11,0.450,24.7,28.7,22.7,6.796,7.7,217,7.5,10.3,0.00146,0.00201,76.5,71.4,11,111,0,.,8.83,0.00,0.00
15min,AgWx,beryljct,423,21JUN2021:19:30:00,83.5,13.01,79.8,80.4,81.0,81.8,80.0,12,14,10,0.415,23.4,26.2,20.7,6.708,7.7,201,7.3,10.4,0.00136,0.00188,76.3,71.6,10,72,0,.,8.83,0.00,0.00
15min,AgWx,beryljct,423,21JUN2021:19:45:00,81.8,12.98,76.9,77.9,78.9,80.4,77.9,13,14,12,0.463,23.5,26.2,21.2,5.7,6.7,200,5.5,8.8,0.00106,0.00150,76.1,71.7,10,31,0,.,8.83,0.00,0.00
15min,AgWx,beryljct,423,21JUN2021:20:00:00,79.9,12.96,76.0,76.1,77.4,78.6,76.0,13,14,12,0.399,22.8,25.1,20.7,6.401,6.4,199,5.2,8.1,0.00092,0.00133,75.8,71.8,10,10,0,.,8.83,0.00,0.00
15min,AgWx,beryljct,423,21JUN2021:20:15:00,77.6,12.95,71.5,71.7,73.5,76.1,71.7,17,19,13,0.484,25.4,27.8,22.1,4.932,5.3,192,4.5,6.4,0.00065,0.00097,75.0,71.8,10,2,0,.,8.84,0.00,0.00
15min,AgWx,beryljct,423,21JUN2021:20:30:00,75.0,12.95,69.8,69.4,71.0,72.1,69.4,19,21,16,0.495,26.1,29.1,23.2,5.217,5.4,193,4.9,6.8,0.00062,0.00091,75.2,71.9,10,0,0,.,8.84,0.00,0.00
15min,AgWx,beryljct,423,21JUN2021:20:45:00,73.0,12.95,70.1,70.6,71.6,74.6,68.9,16,21,11,0.481,22.3,27.9,16.4,4.56,4.9,184,6.6,6.1,0.00057,0.00086,74.9,71.9,10,0,0,.,8.84,0.00,0.00
15min,AgWx,beryljct,423,21JUN2021:21:00:00,71.8,12.92,72.1,71.5,72.0,73.3,70.4,13,19,10,0.301,17.8,25.9,13.9,4.362,4.5,175,6.3,5.4,0.00052,0.00080,74.5,71.9,10,0,0,.,8.84,0.00,0.00
15min,AgWx,beryljct,423,21JUN2021:21:15:00,70.8,12.92,66.3,66.3,69.2,72.1,66.2,16,20,11,0.439,19.9,24.0,14.7,5.415,5.4,181,8.0,6.8,0.00062,0.00090,74.0,72.0,10,0,0,.,8.84,0.00,0.00
15min,AgWx,beryljct,423,21JUN2021:21:30:00,69.5,12.92,68.1,68.3,67.3,68.5,66.3,19,20,18,0.426,23.7,24.6,22.6,5.064,5.5,192,5.3,6.8,0.00059,0.00085,73.8,72.0,10,0,0,.,8.84,0.00,0.00
15min,AgWx,beryljct,423,21JUN2021:21:45:00,68.6,12.91,68.5,68.3,68.2,70.0,66.2,18,23,14,0.427,23.0,27.7,19.0,4.253,4.8,184,5.9,6.2,0.00051,0.00076,73.4,72.0,10,0,0,.,8.84,0.00,0.00
15min,AgWx,beryljct,423,21JUN2021:22:00:00,67.7,12.89,70.6,70.2,67.2,70.2,63.8,19,30,13,0.358,23.5,32.4,17.7,4.253,3.8,179,8.5,5.0,0.00035,0.00055,73.0,72.0,10,0,0,.,8.84,0.00,0.00
15min,AgWx,beryljct,423,21JUN2021:22:15:00,67.0,12.9,63.7,64.2,67.9,70.1,64.0,17,25,13,0.466,21.8,29.3,16.5,2.916,4.4,165,10,5.4,0.00045,0.00068,72.6,71.9,10,0,0,.,8.84,0.00,0.00
15min,AgWx,beryljct,423,21JUN2021:22:30:00,65.7,12.89,63.3,62.9,62.5,64.5,59.0,24,38,18,0.375,24.8,34.6,19.1,4.187,3.2,166,12,5.5,0.00020,0.00034,72.2,71.9,10,0,0,.,8.84,0.00,0.00
15min,AgWx,beryljct,423,21JUN2021:22:45:00,64.0,12.89,55.0,54.2,58.7,63.1,54.2,35,57,19,0.791,30.8,39.5,20.7,4.253,4.5,137,8.2,6.6,0.00028,0.00043,71.3,71.9,10,0,0,.,8.85,0.00,0.00
15min,AgWx,beryljct,423,21JUN2021:23:00:00,62.2,12.87,54.6,54.9,55.8,57.1,54.3,48,54,43,0.742,36.4,38.1,34.8,3.069,4.5,152,14,5.5,0.00018,0.00027,71.4,71.9,10,0,0,.,8.85,0.00,0.00
15min,AgWx,beryljct,423,21JUN2021:23:15:00,60.8,12.85,55.1,56.2,56.2,58.6,54.1,42,51,32,0.725,33.3,37.0,28.9,2.477,3.5,178,11,4.8,0.00012,0.00021,71.1,71.8,10,0,0,.,8.85,0.00,0.00
15min,AgWx,beryljct,423,21JUN2021:23:30:00,60.3,12.87,66.7,65.4,60.9,65.4,55.4,30,47,22,0.467,28.8,36.0,25.4,5.217,4.4,175,5.9,6.0,0.00031,0.00047,70.8,71.7,10,0,0,.,8.85,0.00,0.00
15min,AgWx,bigpiney,439,21JUN2021:00:00:00,53.4,12.65,47.8,47.7,47.9,48.1,47.6,73,74,73,0.830,39.7,39.9,39.6,6.489,8.6,195,10,13.2,0.00010,0.00014,54.4,51.1,43,0,0,0.0,1.99,0.00,0.00
15min,AgWx,bigpiney,439,21JUN2021:00:15:00,52.9,12.65,47.2,47.0,47.3,47.7,47.0,74,74,73,0.813,39.4,39.8,39.2,4.034,5.4,186,9.3,9.4,0.00001,0.00004,54.3,51.0,43,0,0,0.0,1.99,0.00,0.00
15min,AgWx,bigpiney,439,21JUN2021:00:30:00,52.2,12.64,47.2,47.4,47.3,47.6,46.7,74,75,73,0.821,39.4,39.6,39.1,5.327,6.5,187,9.3,9.8,0.00004,0.00007,54.2,51.1,43,0,0,0.0,1.99,0.00,0.00
15min,AgWx,bigpiney,439,21JUN2021:00:45:00,51.8,12.63,46.5,46.4,47.2,47.4,46.4,74,75,73,0.808,39.4,39.6,39.0,1.929,5.4,191,11,9.2,0.00001,0.00003,54.1,51.0,43,0,0,0.0,1.99,0.00,0.00
15min,AgWx,bigpiney,439,21JUN2021:01:00:00,51.2,12.61,47.3,46.9,46.7,47.4,46.2,75,76,73,0.797,39.2,39.5,38.7,3.464,1.7,185,19,5.3,-0.00017,-0.00023,54.0,51.1,43,0,0,0.0,1.99,0.00,0.00
15min,AgWx,bigpiney,439,21JUN2021:01:15:00,50.6,12.6,44.5,44.9,46.0,46.9,44.9,75,78,73,0.786,38.6,39.2,38.2,4.45,4.4,168,7.9,5.4,-0.00004,-0.00002,53.9,51.0,43,0,0,0.0,1.99,0.00,0.00
15min,AgWx,bigpiney,439,21JUN2021:01:30:00,50.0,12.61,45.2,45.3,45.3,45.7,44.7,77,78,76,0.790,38.7,38.9,38.3,5.086,5.0,170,7.0,6.4,-0.00003,-0.00001,53.8,51.0,43,0,0,0.0,1.99,0.00,0.00
15min,AgWx,bigpiney,439,21JUN2021:01:45:00,49.4,12.6,45.6,45.6,45.2,45.8,44.9,77,78,76,0.797,38.6,38.9,38.2,6.27,5.3,159,7.7,7.3,-0.00002,-0.00000,53.7,50.9,43,0,0,0.0,1.99,0.00,0.00
15min,AgWx,bigpiney,439,21JUN2021:02:00:00,49.0,12.58,46.3,45.9,46.0,46.6,45.5,75,76,74,0.792,38.7,38.9,38.4,4.976,5.6,167,7.4,7.9,0.00001,0.00003,53.6,50.9,43,0,0,0.0,1.99,0.00,0.00
15min,AgWx,bigpiney,439,21JUN2021:02:15:00,48.9,12.58,46.3,46.1,46.5,47.0,45.9,74,76,73,0.794,38.6,39.0,38.3,5.853,5.5,167,8.8,8.8,0.00001,0.00004,53.5,50.9,43,0,0,0.0,1.99,0.00,0.00
15min,AgWx,bigpiney,439,21JUN2021:02:30:00,48.7,12.57,46.2,45.9,45.8,46.2,45.3,76,77,75,0.802,38.6,39.1,38.2,5.283,4.7,157,11,6.6,-0.00003,-0.00001,53.4,50.9,43,0,0,0.0,1.99,0.00,0.00
15min,AgWx,bigpiney,439,21JUN2021:02:45:00,48.4,12.56,45.1,44.7,45.0,46.0,44.5,77,79,75,0.782,38.4,38.8,37.8,4.626,4.2,163,11,5.7,-0.00005,-0.00005,53.3,50.9,43,0,0,0.0,1.99,0.00,0.00
15min,AgWx,bigpiney,439,21JUN2021:03:00:00,48.0,12.55,43.7,43.9,44.5,45.0,43.9,78,79,77,0.769,38.1,38.5,37.8,4.911,4.5,170,6.8,8.1,-0.00005,-0.00004,53.2,50.8,43,0,0,0.0,1.99,0.00,0.00
15min,AgWx,bigpiney,439,21JUN2021:03:15:00,47.5,12.53,44.5,44.3,43.7,44.4,43.0,80,82,78,0.779,37.8,38.2,37.4,5.13,5.2,176,6.4,8.1,-0.00003,-0.00002,53.1,50.8,43,0,0,0.0,1.99,0.00,0.00
15min,AgWx,bigpiney,439,21JUN2021:03:30:00,47.1,12.52,43.9,44.1,44.1,44.4,43.5,79,80,78,0.774,38.0,38.3,37.6,4.669,5.0,182,9.1,8.3,-0.00004,-0.00003,53.0,50.8,43,0,0,0.0,1.99,0.00,0.00
15min,AgWx,bigpiney,439,21JUN2021:03:45:00,46.8,12.52,42.1,43.4,43.1,44.1,42.1,81,83,79,0.760,37.6,38.5,36.6,2.214,3.2,192,9.6,5.3,-0.00010,-0.00012,52.9,50.8,43,0,0,0.0,1.99,0.00,0.00
15min,AgWx,bigpiney,439,21JUN2021:04:00:00,46.3,12.51,43.5,44.1,43.6,44.6,42.5,80,83,78,0.774,37.9,38.8,36.5,3.617,3.1,180,9.5,3.7,-0.00011,-0.00013,52.8,50.7,43,0,0,0.0,1.99,0.00,0.00
15min,AgWx,bigpiney,439,21JUN2021:04:15:00,45.7,12.5,44.3,44.2,43.6,44.4,42.9,80,82,78,0.777,38.0,38.8,36.9,1.688,1.7,162,12,4.3,-0.00017,-0.00023,52.7,50.7,43,0,0,0.0,1.99,0.00,0.00
15min,AgWx,bigpiney,439,21JUN2021:04:30:00,45.2,12.49,39.7,40.2,43.3,44.3,40.2,81,84,79,0.701,37.9,38.7,35.5,3.398,1.5,117,48,4.2,-0.00019,-0.00025,52.6,50.7,43,1,0,0.0,1.99,0.00,0.00
15min,AgWx,bigpiney,439,21JUN2021:04:45:00,44.6,12.49,39.7,39.6,39.8,40.2,39.5,87,88,83,0.728,36.3,36.6,35.3,1.732,2.3,79,12,3.8,-0.00015,-0.00018,52.5,50.7,43,3,0,0.0,1.99,0.00,0.00
15min,AgWx,bigpiney,439,21JUN2021:05:00:00,43.9,12.49,39.4,39.1,39.3,39.7,38.7,90,92,88,0.742,36.6,37.0,36.2,2.192,1.9,106,8.0,2.6,-0.00020,-0.00019,52.4,50.6,43,9,1,0.0,1.99,0.00,0.00
15min,AgWx,bigpiney,439,21JUN2021:05:15:00,43.3,12.5,39.0,39.2,39.3,39.7,38.8,92,92,92,0.747,37.2,37.6,36.6,0,1.8,102,6.5,2.6,-0.00012,-0.00011,52.3,50.6,44,18,1,0.0,1.99,0.00,0.00
15min,AgWx,bigpiney,439,21JUN2021:05:30:00,42.9,12.5,39.0,38.7,38.5,39.1,37.7,93,94,91,0.747,36.6,37.1,35.2,1.622,0.2,282,12,1.7,-0.00010,-0.00011,52.2,50.5,43,45,1,0.0,1.99,0.00,0.00
15min,AgWx,bigpiney,439,21JUN2021:05:45:00,42.9,12.54,39.7,39.5,39.1,39.8,38.0,93,94,92,0.766,37.3,38.1,36.3,1.951,0.7,272,16,2.5,0.00004,0.00005,52.1,50.5,43,102,1,0.0,1.99,0.00,0.00
15min,AgWx,bigpiney,439,21JUN2021:06:00:00,43.5,12.57,42.4,42.2,40.8,42.3,39.5,91,93,87,0.795,38.3,39.2,37.5,0.986,1.5,287,12,2.7,0.00028,0.00032,52.0,50.5,43,146,0,0.0,1.99,0.00,0.00
15min,AgWx,bigpiney,439,21JUN2021:06:15:00,45.0,12.56,44.4,44.1,43.5,44.2,42.2,84,87,80,0.795,38.9,39.5,38.4,0,0.7,280,11,2.0,0.00047,0.00052,51.9,50.4,43,167,0,0.0,1.99,0.00,0.00
15min,AgWx,bigpiney,439,21JUN2021:06:30:00,46.8,12.63,46.5,46.3,45.5,46.4,44.1,79,82,77,0.827,39.5,40.3,38.5,0,0.2,294,22,1.4,0.00079,0.00085,51.7,50.4,43,234,0,0.0,1.99,0.00,0.00
15min,AgWx,bigpiney,439,21JUN2021:06:45:00,49.0,12.63,47.7,47.7,46.8,47.8,46.1,77,79,74,0.845,39.9,40.7,39.3,0,0.5,313,41,1.9,0.00105,0.00113,51.7,50.3,43,274,0,0.0,1.99,0.00,0.00
15min,AgWx,bigpiney,439,21JUN2021:07:00:00,51.3,12.68,50.4,49.5,48.5,49.5,47.5,74,76,72,0.870,40.6,41.8,39.7,0,0.9,307,42,3.3,0.00138,0.00151,51.6,50.3,43,326,0,0.0,1.99,0.00,0.00
15min,AgWx,bigpiney,439,21JUN2021:07:15:00,53.5,12.75,50.5,50.1,50.0,50.7,49.4,70,73,69,0.848,40.8,42.0,40.0,0.307,0.8,82,81,3.6,0.00169,0.00184,51.4,50.3,43,374,0,0.0,1.99,0.00,0.00
15min,AgWx,bigpiney,439,21JUN2021:07:30:00,55.6,12.87,51.6,50.9,50.7,51.4,50.1,69,71,67,0.883,41.1,41.9,40.2,4.538,2.5,128,33,6.3,0.00189,0.00214,51.3,50.2,43,395,0,0.0,1.99,0.00,0.00
15min,AgWx,bigpiney,439,21JUN2021:07:45:00,56.8,13.25,52.7,52.0,51.8,52.4,51.0,67,72,64,0.856,41.3,42.8,39.8,2.916,4.2,133,24,7.7,0.00234,0.00270,51.3,50.2,43,474,0,0.0,1.99,0.00,0.00
15min,AgWx,bigpiney,439,21JUN2021:08:00:00,57.7,13.5,52.1,53.1,52.6,53.3,51.9,65,68,62,0.916,41.3,42.6,39.8,4.801,5.3,146,19,9.4,0.00263,0.00307,51.2,50.2,43,519,0,0.0,1.99,0.00,0.00
15min,AgWx,bigpiney,439,21JUN2021:08:15:00,58.4,13.69,53.6,53.6,53.1,53.6,52.6,64,66,62,0.906,41.4,42.3,40.3,6.05,6.8,159,13,9.8,0.00289,0.00342,51.1,50.1,43,566,0,0.0,1.99,0.00,0.00
15min,AgWx,bigpiney,439,21JUN2021:08:30:00,59.3,14.15,54.1,54.2,54.1,54.8,53.2,64,67,61,0.893,42.2,43.7,40.5,2.696,5.3,152,19,10.8,0.00319,0.00369,51.0,50.1,43,609,0,0.0,1.99,0.00,0.00
15min,AgWx,bigpiney,439,21JUN2021:08:45:00,60.1,14.29,54.3,54.7,54.3,55.1,53.5,62,65,59,0.862,41.6,43.4,40.1,7.388,5.6,145,24,10.1,0.00344,0.00398,51.0,50.1,43,652,0,0.0,1.99,0.00,0.00